Wind_Speed
11 11 11 11 11 11 11 11 11 11 11 12 11 11 11 12 12 12 12 12 12 13 14 14 15 15 15 16 16 16 16 17 17 18 19 19 20 20 20 20 20 20 20
14 13 13 12 12 12 12 12 12 12 12 12 12 12 12 13 13 13 13 13 13 13 14 14 15 15 15 15 15 16 16 17 17 18 19 20 21 21 22 21 22 22 22
14 14 13 13 13 13 13 13 13 13 14 14 13 13 13 14 15 15 15 15 15 15 15 15 15 15 15 15 16 16 17 18 19 19 20 21 21 21 22 22 22 23 23
16 15 14 15 15 15 14 14 14 14 15 15 15 14 14 15 16 16 16 15 16 16 16 16 16 16 16 16 17 17 18 19 19 19 20 22 22 22 22 23 23 23 24
16 16 16 15 15 15 15 15 16 15 16 15 16 16 16 16 16 15 15 15 16 16 16 17 17 17 17 18 18 19 19 20 20 21 22 22 23 23 23 24 25 25 26
17 17 17 17 16 17 17 17 17 17 17 17 16 17 16 16 17 17 18 17 17 17 17 17 17 18 18 19 19 20 20 20 21 22 23 23 23 24 25 26 26 27 28
19 18 18 18 18 18 19 18 18 18 18 18 18 18 18 18 19 19 19 19 19 19 19 19 19 19 19 20 21 21 22 22 23 24 24 25 25 26 26 27 27 28 29
20 20 19 20 21 21 20 20 20 19 20 20 20 19 19 20 20 21 21 20 20 21 21 21 22 22 22 22 22 23 24 25 26 26 26 26 27 28 28 28 29 30 31
22 22 21 22 23 22 22 22 22 21 21 21 22 21 21 21 21 21 22 22 22 23 24 24 24 24 24 24 24 25 26 27 27 27 26 27 28 29 29 30 31 32 32
23 22 23 23 24 24 23 24 23 23 22 22 23 23 23 23 23 24 24 25 25 26 26 26 26 26 26 26 26 27 28 28 28 28 27 28 29 29 31 31 33 33 33
25 25 25 26 26 25 23 24 24 24 24 24 24 24 24 25 25 25 26 26 27 27 27 27 26 27 27 27 27 28 28 28 28 29 29 30 30 31 32 33 34 34 34
26 27 27 28 28 26 25 25 26 26 26 25 25 25 25 25 25 26 26 26 27 28 27 26 26 26 27 27 28 28 28 28 29 29 30 31 32 33 34 34 35 35 35
26 28 28 27 27 26 26 27 27 27 27 26 26 25 24 24 24 25 26 27 27 26 25 25 26 26 27 28 28 29 29 30 30 30 31 32 33 34 35 35 36 37 37
26 27 27 26 26 26 26 26 26 26 26 25 25 25 25 25 25 25 26 26 27 27 26 26 26 27 28 28 29 30 31 31 31 32 32 33 34 35 36 36 36 37 38
25 24 24 24 24 25 25 26 26 25 25 25 26 26 26 26 26 26 26 27 27 26 26 26 27 28 29 29 30 31 31 31 32 33 33 34 35 35 36 37 38 39 39
23 23 22 22 24 24 24 24 24 24 24 25 25 26 25 26 26 27 27 27 26 27 27 27 27 28 29 29 30 31 32 32 33 34 34 35 35 35 36 37 38 38 39
21 22 22 23 23 23 23 23 24 24 24 24 25 26 26 26 26 26 26 26 26 27 27 27 28 29 29 29 30 31 31 32 33 33 35 35 35 36 37 37 38 38 39
22 22 22 22 22 22 22 23 23 23 23 24 24 25 25 25 25 25 25 26 26 27 27 28 28 29 29 30 30 31 31 32 33 33 34 35 35 36 37 37 38 38 39
22 22 22 22 22 22 22 22 22 23 23 24 24 24 24 25 25 25 25 25 26 26 27 28 29 30 30 30 31 32 32 33 33 34 34 34 35 36 36 37 37 38 38
21 20 20 20 20 21 21 21 22 23 23 24 24 24 24 25 25 26 26 26 26 27 27 28 29 30 30 30 31 32 32 32 33 33 34 35 35 36 36 37 37 37 37
19 19 19 19 20 21 21 22 23 23 23 23 24 24 25 25 26 26 27 27 27 27 28 29 29 30 30 30 30 31 31 32 33 34 34 35 36 36 37 37 37 37 36
19 19 19 20 21 21 21 22 22 22 22 23 24 25 26 26 26 27 27 27 28 29 29 30 31 31 31 31 31 32 32 33 34 35 36 36 36 37 37 36 36 35 35
19 19 19 19 20 20 21 21 22 22 23 24 25 25 26 26 26 27 28 28 29 29 30 30 31 31 31 31 32 32 33 34 34 35 35 35 36 35 35 35 34 34 34
18 18 18 19 19 20 21 22 22 23 24 24 25 26 26 27 27 27 28 28 29 30 30 31 31 32 32 31 32 32 32 33 33 33 33 33 33 33 33 33 32 32 33
18 18 18 19 20 20 21 22 23 23 24 25 26 26 27 27 28 28 28 28 29 29 30 30 30 30 30 30 30 31 32 32 32 32 32 32 32 32 32 32 32 32 32
18 19 19 19 20 21 22 22 23 24 25 26 26 26 27 27 27 27 27 28 28 29 30 29 29 29 29 29 30 30 30 31 31 31 31 32 32 31 31 31 31 31 31
Wind_Direction
285 283 278 279 284 286 290 295 300 305 305 301 296 293 294 292 291 291 294 296 297 296 295 293 293 291 290 290 288 287 286 284 284 283 284 286 287 288 287 287 287 286 286
279 282 276 275 281 285 289 293 299 305 307 305 297 292 293 291 286 285 288 291 293 296 298 299 297 293 289 289 287 286 286 285 285 283 283 284 286 287 287 285 286 285 286
275 277 276 277 280 284 286 290 294 298 300 303 300 294 293 292 287 285 285 287 289 294 295 297 297 296 294 292 288 287 288 287 287 286 284 284 284 286 286 284 284 286 286
269 269 274 274 274 277 283 288 292 295 296 297 300 299 295 294 294 291 287 289 289 291 294 296 296 294 292 293 291 290 291 290 289 288 285 284 283 285 285 284 284 286 287
270 269 271 273 275 276 281 286 286 289 293 296 298 300 296 295 295 293 291 289 288 292 294 296 295 294 291 292 292 292 292 292 290 290 290 286 285 285 286 286 285 286 287
272 269 269 270 274 279 281 285 284 285 289 293 295 297 295 295 293 290 291 289 290 291 293 295 294 293 292 291 292 294 294 293 292 292 291 288 287 286 287 287 287 288 288
273 270 271 271 272 275 279 282 285 286 288 289 291 292 293 292 291 289 289 289 288 289 291 293 294 292 290 291 292 292 294 294 293 292 291 290 290 290 289 289 288 288 289
272 269 270 272 272 273 276 280 282 283 284 286 287 288 289 289 289 289 288 289 288 288 289 290 290 291 289 289 291 292 292 293 293 292 291 291 292 292 291 291 290 290 290
272 271 270 273 274 275 276 277 280 282 282 284 284 284 285 287 289 288 289 289 288 287 286 287 288 289 290 289 290 291 292 293 293 293 293 291 290 290 291 292 292 292 292
270 272 271 271 270 273 276 276 277 280 280 282 283 283 285 286 286 286 288 288 288 288 287 286 287 289 289 290 290 291 292 292 292 293 293 293 292 292 293 294 294 294 293
268 269 270 271 272 274 277 277 278 278 278 280 282 283 283 283 285 287 289 290 288 288 287 286 286 287 289 291 291 292 293 293 293 293 293 294 294 294 293 294 294 294 294
268 269 270 271 271 273 277 280 281 277 276 277 280 283 286 286 287 289 289 290 289 288 289 288 288 287 289 291 292 293 294 294 295 295 294 294 294 294 294 294 294 294 294
271 272 272 273 274 276 278 280 281 280 279 280 284 285 287 288 290 291 291 292 292 292 292 290 289 289 291 294 294 294 294 294 295 296 296 295 295 296 296 296 296 295 295
272 273 274 273 273 275 275 277 279 282 285 288 288 287 287 288 291 292 294 294 295 294 293 293 293 293 294 294 295 295 295 296 297 297 297 297 297 297 297 298 298 298 298
274 274 273 273 274 275 275 277 280 283 287 290 292 293 290 290 290 290 292 293 293 292 293 293 294 295 296 296 296 297 296 297 298 298 298 298 299 298 298 298 299 300 300
274 275 274 274 275 276 276 277 280 284 287 291 293 295 294 292 292 290 292 293 292 294 294 294 295 296 298 299 299 298 297 297 298 298 299 299 300 300 300 300 301 301 301
275 276 277 277 276 277 278 280 282 285 288 291 293 294 294 294 295 295 295 294 295 296 295 296 296 297 298 300 301 301 300 300 299 300 300 301 301 301 301 301 302 302 302
273 274 276 276 279 280 280 281 283 286 289 292 293 293 294 295 298 298 297 296 296 297 297 297 299 299 299 300 301 301 301 301 302 302 302 302 302 303 303 303 303 303 303
271 272 273 274 276 278 278 280 283 286 289 291 292 292 292 294 297 298 298 298 298 299 299 299 300 301 301 301 301 301 301 302 303 304 304 304 304 305 305 305 305 305 305
273 273 273 275 276 277 280 281 284 287 289 290 291 292 293 295 297 299 299 298 299 300 300 301 302 303 302 302 301 301 302 303 305 306 306 306 306 306 306 307 307 307 306
274 275 277 278 279 279 280 281 285 287 288 289 291 293 295 297 298 299 300 300 301 302 303 304 304 305 304 302 302 303 304 305 306 307 307 308 308 308 308 308 308 308 307
276 275 275 275 278 278 280 282 285 286 287 289 292 295 296 296 297 298 300 301 302 304 305 305 305 305 305 303 303 305 305 306 308 308 308 308 308 308 308 309 309 309 308
275 273 272 274 276 279 281 283 285 286 288 292 293 295 296 295 295 297 299 301 302 304 305 306 307 307 307 306 305 306 306 307 308 309 309 310 310 310 310 310 310 310 310
273 274 275 276 278 280 282 283 285 287 289 292 296 297 298 298 298 298 300 301 302 305 306 306 307 307 307 307 307 307 308 309 310 311 311 311 312 312 312 312 311 311 311
272 273 276 279 281 282 284 286 287 288 290 292 295 297 298 299 299 300 301 303 304 306 308 309 309 309 309 308 309 309 311 311 311 311 312 312 312 312 312 312 313 313 314
275 276 277 280 282 284 286 288 289 290 292 294 295 297 299 300 301 301 302 304 306 308 309 310 311 312 312 311 312 313 314 313 312 312 313 313 314 314 314 314 315 316 317
Height
5893 5893 5892 5892 5891 5891 5890 5889 5888 5887 5886 5884 5883 5883 5882 5881 5880 5879 5878 5877 5876 5874 5873 5872 5871 5870 5868 5867 5866 5865 5864 5863 5863 5862 5861 5860 5858 5857 5856 5855 5854 5853 5851
5891 5890 5890 5889 5888 5888 5887 5887 5886 5885 5883 5882 5881 5880 5878 5877 5876 5876 5875 5874 5872 5871 5870 5868 5867 5865 5864 5863 5862 5861 5859 5858 5858 5857 5855 5854 5853 5852 5850 5849 5848 5847 5845
5887 5886 5887 5886 5886 5885 5885 5884 5883 5882 5881 5879 5878 5876 5875 5874 5873 5872 5871 5870 5869 5868 5866 5865 5863 5862 5861 5859 5858 5856 5855 5854 5852 5851 5850 5849 5847 5846 5845 5843 5842 5840 5839
5883 5883 5883 5883 5882 5882 5882 5880 5880 5879 5878 5876 5875 5873 5872 5871 5870 5868 5867 5866 5865 5864 5862 5861 5859 5858 5856 5855 5854 5852 5851 5849 5847 5846 5845 5843 5842 5840 5839 5837 5836 5834 5833
5879 5879 5879 5879 5879 5879 5878 5877 5876 5875 5874 5873 5871 5870 5868 5867 5866 5865 5863 5862 5861 5860 5858 5857 5855 5854 5852 5851 5849 5848 5846 5844 5842 5841 5839 5837 5836 5834 5833 5831 5829 5828 5826
5876 5875 5875 5875 5875 5875 5874 5873 5872 5871 5870 5869 5868 5866 5865 5863 5862 5861 5859 5858 5857 5856 5854 5852 5851 5849 5848 5846 5845 5843 5841 5839 5837 5835 5833 5831 5830 5828 5826 5824 5822 5821 5819
5871 5871 5871 5871 5871 5870 5870 5869 5868 5867 5866 5865 5864 5862 5861 5859 5858 5857 5855 5854 5852 5851 5850 5848 5846 5845 5843 5841 5839 5837 5835 5833 5831 5829 5827 5825 5823 5821 5819 5817 5815 5813 5811
5866 5866 5866 5866 5865 5865 5864 5864 5863 5862 5861 5860 5859 5858 5856 5855 5853 5852 5850 5849 5847 5846 5844 5843 5841 5839 5837 5835 5834 5832 5829 5827 5825 5822 5820 5818 5816 5814 5811 5809 5807 5805 5802
5861 5860 5860 5861 5860 5859 5859 5858 5858 5857 5856 5855 5854 5852 5851 5850 5848 5847 5845 5843 5842 5840 5838 5837 5835 5833 5831 5829 5827 5825 5823 5820 5818 5815 5813 5811 5809 5806 5804 5801 5799 5796 5793
5855 5855 5855 5855 5854 5853 5853 5852 5852 5851 5850 5849 5848 5846 5845 5844 5842 5841 5839 5838 5836 5834 5832 5830 5828 5826 5824 5822 5820 5818 5816 5813 5810 5808 5805 5803 5801 5798 5796 5793 5790 5787 5784
5849 5849 5849 5849 5848 5847 5847 5846 5845 5845 5844 5843 5841 5840 5839 5837 5836 5834 5832 5830 5828 5826 5824 5822 5820 5819 5817 5815 5813 5810 5808 5805 5802 5800 5797 5795 5792 5790 5787 5784 5781 5778 5775
5842 5843 5843 5842 5841 5841 5840 5839 5839 5838 5837 5836 5835 5833 5832 5830 5829 5827 5825 5823 5821 5819 5817 5815 5813 5811 5809 5807 5805 5802 5800 5797 5795 5792 5789 5786 5784 5781 5777 5774 5771 5768 5764
5836 5835 5835 5835 5834 5834 5834 5834 5832 5831 5830 5830 5828 5826 5825 5824 5822 5820 5818 5816 5814 5812 5810 5808 5806 5804 5802 5800 5797 5794 5792 5789 5786 5783 5781 5778 5775 5771 5768 5764 5761 5757 5754
5828 5828 5827 5827 5827 5827 5827 5827 5826 5825 5824 5822 5821 5820 5818 5817 5816 5814 5812 5809 5807 5805 5803 5801 5798 5796 5794 5791 5789 5786 5783 5780 5777 5775 5771 5768 5765 5761 5758 5754 5750 5746 5743
5821 5820 5820 5820 5820 5820 5820 5820 5819 5819 5818 5817 5816 5814 5812 5810 5808 5807 5805 5802 5800 5798 5796 5793 5791 5789 5786 5783 5780 5777 5774 5771 5768 5765 5762 5759 5755 5752 5748 5744 5740 5736 5732
5814 5814 5814 5813 5813 5813 5813 5813 5813 5812 5812 5811 5809 5807 5805 5804 5801 5799 5798 5795 5793 5791 5788 5786 5783 5781 5778 5775 5772 5769 5766 5763 5760 5756 5753 5749 5746 5742 5738 5734 5730 5726 5721
5807 5808 5807 5807 5807 5807 5807 5807 5807 5806 5805 5804 5802 5801 5799 5797 5795 5792 5790 5788 5786 5783 5781 5778 5776 5773 5770 5767 5764 5760 5757 5754 5750 5747 5743 5739 5736 5732 5728 5724 5719 5715 5710
5802 5802 5801 5801 5801 5801 5801 5801 5801 5800 5799 5797 5796 5794 5792 5790 5788 5786 5783 5781 5778 5776 5774 5771 5768 5765 5762 5759 5755 5752 5748 5745 5741 5737 5734 5730 5726 5722 5717 5713 5709 5704 5700
5795 5795 5795 5795 5795 5796 5796 5795 5794 5794 5793 5791 5789 5788 5786 5784 5781 5779 5776 5774 5771 5768 5766 5763 5760 5757 5753 5750 5747 5743 5740 5736 5732 5728 5724 5720 5716 5712 5707 5703 5698 5693 5689
5789 5789 5790 5789 5789 5789 5789 5789 5788 5787 5786 5785 5783 5781 5779 5777 5775 5772 5769 5767 5764 5761 5758 5755 5752 5748 5745 5742 5738 5735 5731 5727 5723 5719 5715 5711 5706 5702 5697 5693 5688 5683 5678
5784 5784 5784 5784 5784 5784 5783 5783 5782 5781 5780 5778 5776 5775 5772 5770 5768 5765 5762 5760 5757 5754 5751 5747 5744 5740 5736 5733 5729 5726 5722 5718 5714 5710 5706 5701 5697 5692 5687 5683 5678 5673 5668
5778 5778 5778 5778 5777 5777 5777 5776 5775 5774 5773 5771 5769 5767 5765 5763 5761 5758 5755 5752 5749 5746 5743 5739 5735 5732 5728 5724 5721 5717 5713 5709 5705 5701 5696 5692 5687 5682 5678 5673 5668 5663 5658
5772 5772 5772 5772 5772 5771 5771 5770 5769 5767 5766 5764 5762 5760 5758 5756 5753 5750 5748 5745 5742 5738 5735 5731 5727 5723 5719 5715 5712 5708 5704 5700 5696 5691 5687 5682 5678 5673 5668 5664 5659 5654 5650
5767 5767 5767 5766 5766 5765 5764 5763 5762 5761 5759 5757 5755 5753 5751 5748 5746 5743 5740 5737 5734 5731 5727 5723 5719 5715 5711 5707 5703 5699 5695 5691 5687 5682 5678 5673 5669 5664 5660 5655 5650 5646 5641
5762 5761 5761 5761 5760 5759 5758 5757 5755 5754 5752 5750 5748 5746 5743 5741 5738 5735 5733 5730 5726 5723 5719 5715 5711 5707 5703 5699 5695 5691 5687 5683 5678 5674 5670 5665 5661 5656 5652 5647 5643 5638 5634
5756 5756 5755 5754 5753 5752 5751 5750 5748 5747 5745 5743 5741 5738 5736 5733 5731 5728 5725 5722 5719 5715 5711 5707 5703 5699 5695 5691 5687 5683 5679 5675 5671 5666 5662 5658 5653 5649 5644 5640 5635 5630 5626